Location: Central Falls
(41.8900°N, 71.3929°W)
Time: 13:54:13
(UTC+00:00)

Courier 1B Rocket - Pass Details

Date: 03 December 2023
Orbit: 920 x 1202 km, 28.2° (Epoch: 01 March)

Event Time Altitude Azimuth Distance (km) Brightness Sun altitude
Rises 19:43:55 0° 247° (WSW) 3,587 9.3 12.6°
Reaches altitude 10° 19:47:06 10° 233° (SW) 2,620 9.9 12.1°
Maximum altitude 19:51:50 23° 183° (S) 1,858 7.4 11.5°
Drops below altitude 10° 19:56:32 10° 134° (SE) 2,608 7.3 10.9°
Sets 19:59:42 0° 120° (ESE) 3,567 7.8 10.5°
